AirNav   Air Wisconsin Up To $57,000 Bonus
 
 1524 users online  

O74 Elliot's Landing Airport
Mount Victory, Ohio, USA

GOING TO MOUNT VICTORY?


FAA INFORMATION EFFECTIVE 19 MAY 2022

Location

FAA Identifier: O74
Lat/Long: 40-31-29.0000N 083-30-42.0000W
40-31.483333N 083-30.700000W
40.5247222,-83.5116667
(estimated)
Elevation: 1045 ft. / 319 m (estimated)
Variation: 05W (1995)
From city: 1 mile SE of MOUNT VICTORY, OH
Time zone: UTC -4 (UTC -5 during Standard Time)
Zip code: 43340

Airport Operations

Airport use: Open to the public
Activation date: 06/1995
Control tower: no
ARTCC: INDIANAPOLIS CENTER
FSS: DAYTON FLIGHT SERVICE STATION
NOTAMs facility: DAY (NOTAM-D service available)
Attendance: UNATNDD
Wind indicator: yes
Segmented circle: no

Airport Communications

CTAF: 122.9
WX AWOS-2 at I95 (8 nm NW): 126.4 (419-675-0781)
WX AWOS-3 at EDJ (17 nm SW): 118.075 (937-599-4654)
WX AWOS-3 at MRT (19 nm S): 119.275 (937-644-2967)

Nearby radio navigation aids

VOR radial/distance  VOR name  Freq  Var
BUDr260/(21.1)BUCKEYE VOR109.8005W
FBCr159/28.1FLAG CITY VORTAC108.2002W
RODr065/28.1ROSEWOOD VORTAC117.5005W

 
NDB name  Hdg/Dist  Freq  Var  ID
TIFFIN207/36.826905WTII - .. ..

Airport Services

Runway Information

Runway 15/33

Dimensions: 2750 x 110 ft. / 838 x 34 m
Surface: turf, in good condition
Runway edge markings: 15/33 MKD WITH TIRES ON EACH END.
RUNWAY 15  RUNWAY 33
Traffic pattern: leftleft
Obstructions: 3 ft. crops, 100 ft. left of centerline
+72 FT TREE 855 FM 87 FT LEFT OBST CLNS SLOPE 11:1.
6 ft. crops, 75 ft. left of centerline

Airport Ownership and Management from official FAA records

Ownership: Privately-owned
Owner: ELLIOT & ELLIOTT INC
PO BOX 173
MT VICTORY, OH 43340-0257
Phone 937-354-2851
Manager: DAVID WAGNER
491 S MAIN ST
MT VICTORY, OH 43340-0257
Phone 937-354-2851
ALT CTC SCOTT ELLIOT (937) 645-0631.

Airport Operational Statistics

Aircraft operations: avg 30/week *
100% transient general aviation
* for 12-month period ending 11 September 2019

Additional Remarks

FOR CD CTC INDIANAPOLIS ARTCC AT 317-247-2411.

Instrument Procedures

There are no published instrument procedures at O74.

Some nearby airports with instrument procedures:

I95 - Hardin County Airport (8 nm NW)
KEDJ - Bellefontaine Regional Airport (17 nm SW)
KMRT - Union County Airport (19 nm S)
KMNN - Marion Municipal Airport (21 nm E)
56D - Wyandot County Airport (23 nm NE)
 
Loc | Ops | Rwys | IFR | FBO | Links
Com | Nav | Svcs | Stats | Notes
Area around O74 (Elliot's Landing Airport)
 
Road maps at: MapQuest Bing Google
 
Aerial photo
WARNING: Photo may not be current or correct
Aerial photo of O74 (Elliot's Landing Airport)
Do you have a better or more recent aerial photo of Elliot's Landing Airport that you would like to share? If so, please send us your photo.

 
Sectional chart

 
Airport distance calculator
Flying to Elliot's Landing Airport? Find the distance to fly.

From to O74

Sunrise and sunset
Times for 26-May-2022
 Local
(UTC-4)
 Zulu
(UTC)
Morning civil twilight05:3809:38
Sunrise06:1010:10
Sunset20:5200:52
Evening civil twilight21:2401:24

Current date and time
Zulu (UTC)  26-May-2022 14:54:23
Local (UTC-4)  26-May-2022 10:54:23
 
METAR
KEDJ 
17nm SW 
261435Z AUTO 18012KT 9SM SCT017 SCT030 BKN046 21/19 A2998 RMK A01
KMRT 
19nm S 
261435Z AUTO 19013G17KT 7SM OVC012 20/18 A3000 RMK AO2 T01980177
KMNN 
21nm E 
261424Z AUTO 19012G21KT 10SM BKN018 BKN040 OVC110 21/17 A2999 RMK AO2 RAB08E18 P0000 T02060172 $
KDLZ 
23nm SE 
261435Z AUTO 18012KT 10SM SCT019 SCT034 BKN055 20/17 A3000 RMK AO2
KAOH 
25nm NW 
261353Z AUTO 17011G20KT 10SM -RA BKN075 OVC090 21/18 A2995 RMK AO2 RAB44 SLP136 P0000 T02110178
KI74 
26nm SW 
261435Z AUTO 19012G20KT 10SM -RA OVC015 20/18 A2998 RMK AO2
KFDY 
30nm N 
261353Z AUTO 17014KT 10SM -RA SCT070 BKN090 OVC110 22/19 A2993 RMK AO2 RAB44 SLP126 P0000 T02220189
KOSU 
33nm SE 
261353Z 18010G20KT 10SM -RA FEW015 BKN060 OVC110 21/18 A3002 RMK AO2 RAB16 SLP158 P0000 T02060178
TAF
KFDY 
30nm N 
261121Z 2612/2712 19012G20KT P6SM VCSH OVC040 FM261800 19013G22KT P6SM -SHRA OVC025 TEMPO 2619/2623 VRB20G40KT 1 1/2SM TSRA BKN025CB FM262300 18011KT P6SM VCSH OVC015 PROB30 2703/2709 3SM -TSRA OVC015CB
NOTAMs
Click for the latest NOTAMs
NOTAMs are issued by the DoD/FAA and will open in a separate window not controlled by AirNav.

 

 
 

Would you like to see your business listed on this page?

 If your business provides an interesting product or service to pilots, flight crews, aircraft, or users of the Elliot's Landing Airport, you should consider listing it here.  To start the listing process, click on the button below
 
Add a business
 

Other Pages about Elliot's Landing Airport

Update a link
 
Copyright © AirNav, LLC. All rights reserved. Privacy Policy  Contact